Location: *
(40.4270°N, 9.4940°E)
Time: 03:17:29
(UTC+02:00)

Okean 2 - Visible Passes

Search period start: 31 July 2014 00:00
Search period end: 10 August 2014 00:00
Orbit: 571 x 587 km, 82.5° (Epoch: 30 July)

Date Brightness Start Highest point End Pass type
(mag) Time Alt. Az. Time Alt. Az. Time Alt. Az.
31 Jul 4.4 22:12:56 10° NNE 22:16:42 31° ENE 22:17:38 28° E visible
31 Jul 5.5 23:50:27 10° NW 23:53:30 20° W 23:53:58 19° W visible
01 Aug 3.9 22:17:32 10° N 22:21:34 42° ENE 22:22:35 35° ESE visible
01 Aug 5.9 23:55:54 10° NW 23:58:10 14° W 23:58:55 14° W visible
02 Aug 3.5 22:22:12 10° N 22:26:24 60° E 22:27:34 42° SE visible
03 Aug 6.3 00:02:28 10° WNW 00:02:49 10° W 00:03:10 10° W visible
03 Aug 3.3 22:26:58 10° N 22:31:12 85° E 22:32:33 43° SSE visible
04 Aug 3.6 22:31:47 10° NNW 22:35:59 68° W 22:37:35 36° SSW visible
05 Aug 5.4 21:01:20 10° NE 21:03:25 13° ENE 21:05:30 10° E visible
05 Aug 4.3 22:36:41 10° NNW 22:40:45 47° W 22:42:37 28° SSW visible
06 Aug 5.1 21:05:25 10° NNE 21:08:21 18° ENE 21:11:15 10° ESE visible
06 Aug 4.9 22:41:39 10° NNW 22:45:28 34° W 22:47:41 20° SW visible
07 Aug 4.7 21:09:46 10° NNE 21:13:15 24° ENE 21:16:27 11° SE visible
07 Aug 5.4 22:46:44 10° NW 22:50:11 25° W 22:52:48 14° SW visible
08 Aug 4.3 21:14:17 10° NNE 21:18:07 33° ENE 21:21:35 12° SE visible
08 Aug 5.9 22:51:59 10° NW 22:54:51 18° W 22:57:42 10° SW visible
09 Aug 3.8 21:18:53 10° N 21:22:57 46° E 21:26:45 11° SSE visible
09 Aug 6.2 22:57:33 10° WNW 22:59:30 13° W 23:01:27 10° WSW visible
